#timestamp,LO_Frequency,Hit,StdDev 
1585893615.3,286047000.8,N
1585893635.1,286047002.4,N
1585893655.9,286047004.0,N
1585893675.7,286047001.3,N
1585893695.6,286047001.7,N
1585893715.4,286047003.2,N
1585893735.2,286047000.6,N
1585893755.1,286046998.8,N
1585893756.0,286046998.8,N
1585893775.8,286047001.0,N
1585893795.7,286046998.5,N
1585893815.5,286046999.8,N
1585893835.3,286047000.2,N
1585893855.2,286046999.3,N
1585893875.0,286046998.6,N
1585893875.9,286046998.6,N
1585893895.8,286046998.3,N
1585893915.6,286046999.0,N
1585893935.4,286047000.2,N
1585893955.3,286047000.6,N
1585893975.1,286046999.9,N
1585893995.8,286047002.7,N
1585894015.7,286047002.4,N
1585894035.5,286047002.1,N
1585894055.4,286047002.6,N
1585894075.2,286047003.6,N
1585894095.0,286047004.3,N
1585894095.9,286047004.3,N
1585894115.8,286046999.8,N
1585894135.6,286047001.9,N
1585894155.5,286047000.9,N
1585894175.3,286047002.1,N
1585894195.1,286047001.3,N
1585894215.9,286047003.9,N
1585894235.7,286047002.7,N
1585894255.5,286047002.8,N
1585894275.4,286047004.0,N
1585894295.2,286047001.3,N
1585894315.1,286047003.9,N
1585894316.0,286047003.9,N
1585894335.8,286047002.5,N
1585894355.6,286047002.1,N
1585894375.5,286047000.1,N
1585894395.3,286047001.8,N
1585894415.2,286046999.8,N
1585894435.9,286047000.0,N
1585894455.7,286047001.2,N
1585894475.6,286047000.2,N
1585894495.4,286046998.4,N
1585894515.2,286047000.8,N
1585894535.1,286046998.7,N
1585894566.0,286046999.7,E
1585894575.0,286047000.9,N
1585894575.9,286047000.9,P
1585894595.8,286046998.6,P
1585894615.6,286047000.5,N
1585894635.4,286047000.2,N
1585894655.3,286046999.8,N
1585894675.1,286047000.8,N
1585894695.9,286047001.1,N
1585894715.7,286047000.8,N
1585894735.5,286047002.7,Y
1585894755.4,286047002.7,P
1585894775.2,286046998.1,N
1585894795.0,286046998.6,N
1585894795.9,286046998.6,N
1585894815.8,286046998.2,N
1585894835.6,286047000.7,N
1585894855.5,286047000.0,N
1585894875.3,286047002.8,N
1585894895.1,286047000.9,N
1585894915.9,286047000.2,N
1585894935.7,286047000.0,N
1585894955.6,286047000.0,N
1585894975.4,286047002.4,N
1585894995.2,286047001.5,N
1585895015.1,286047002.0,N
1585895016.0,286047002.0,N
1585895035.8,286047002.3,N
1585895055.6,286047004.0,N
1585895075.5,286047001.4,N
1585895095.3,286047001.8,N
1585895115.2,286047002.0,N
1585895135.9,286046999.7,N
1585895155.7,286047002.2,N
1585895175.6,286047002.1,N
1585895195.4,286047001.6,N
1585895215.3,286047001.5,N
1585895235.1,286047002.6,N
1585895236.0,286047002.6,N
1585895255.8,286046998.2,N
1585895275.7,286046998.1,N
1585895295.5,286046998.9,N
1585895315.3,286046999.3,N
1585895335.2,286046999.9,N
1585895355.0,286047000.0,N
1585895355.9,286047000.0,N
1585895375.8,286046998.4,N
1585895395.6,286046999.7,N
1585895415.4,286046999.9,N
1585895435.3,286047000.1,N
1585895455.1,286047001.3,N
1585895475.9,286047002.6,N
1585895495.7,286047004.1,N
1585895515.5,286047002.0,N
1585895535.4,286047001.8,N
1585895555.2,286047005.6,Y
1585895575.1,286047003.5,P
1585895576.0,286047003.5,N
1585895595.8,286047002.3,N
1585895615.6,286047003.1,Y
1585895635.5,286047000.2,P
1585895655.3,286046999.2,N
1585895675.1,286046999.2,N
1585895695.9,286047000.7,N
1585895715.7,286046998.6,N
1585895735.6,286046998.2,N
1585895755.4,286046996.9,N
1585895775.2,286046997.2,N
1585895795.1,286046997.6,N
1585895796.0,286046997.6,N
1585895815.8,286046996.5,N
1585895835.7,286046998.3,N
1585895855.5,286047001.2,N
1585895875.3,286047000.9,N
1585895895.2,286046998.1,N
1585895915.0,286046998.6,N
1585895915.9,286046998.6,N
1585895935.8,286046999.6,N
1585895955.6,286046996.8,N
1585896005.5,286046995.9,E
1585896015.4,286046999.1,N
1585896035.2,286047000.6,P
1585896055.1,286047001.9,N
1585896056.0,286047001.9,N
1585896075.8,286047001.8,N
1585896095.6,286047005.5,Y
1585896115.5,286047005.5,P
1585896135.3,286047002.9,N
1585896155.2,286047003.2,N
1585896175.9,286047003.0,N
1585896195.7,286047003.3,N
1585896215.6,286047005.0,Y
1585896235.4,286047004.4,P
1585896255.2,286047002.4,P
1585896275.1,286046999.8,N
1585896276.0,286046999.8,N
1585896295.8,286047001.9,N
1585896315.7,286047002.5,N
1585896335.5,286047000.3,N
1585896355.3,286047000.5,N
1585896375.2,286046998.5,N
1585896395.0,286047000.8,N
1585896395.9,286047000.8,N
1585896415.8,286047001.2,N
1585896435.6,286047000.5,N
1585896455.4,286046998.1,N
1585896475.3,286047002.8,N
1585896495.3,286047000.1,N
1585896515.1,286046998.2,N
1585896535.9,286047000.0,N
1585896555.7,286046998.9,N
1585896575.5,286046996.5,N
1585896595.4,286046999.6,N
1585896615.2,286046998.5,N
1585896635.1,286046998.1,N
1585896636.0,286046998.1,N
1585896655.8,286046998.3,N
1585896675.6,286046997.6,N
1585896695.5,286046995.1,N
1585896715.3,286046998.6,N
1585896735.1,286046998.9,N
1585896755.9,286046999.2,N
1585896775.7,286046997.0,N
1585896795.6,286046998.9,N
1585896815.4,286046996.5,N
1585896835.2,286046999.1,N
1585896855.1,286046997.4,N
1585896856.0,286046997.4,N
1585896875.8,286046995.3,N
1585896895.7,286046995.7,N
1585896915.5,286046996.3,N
1585896935.3,286046996.2,N
1585896955.2,286046995.9,N
1585896975.0,286046995.4,N
1585896975.9,286046995.4,N
1585896995.7,286046996.0,N
1585897015.6,286046994.3,Y
1585897035.4,286046997.2,P
1585897055.3,286046996.5,P
1585897075.1,286046996.9,P
1585897095.8,286046996.7,Y
1585897115.7,286047000.2,P
1585897135.5,286047001.1,N
1585897155.4,286046998.7,N
1585897175.2,286046999.1,N
1585897195.1,286047001.1,N
1585897196.0,286047001.1,N
